FW1460 Weather Reports


Display with metric or nautical units.
time (UTC)temp
F
wind
direction
speed
MPH
gust
MPH
rain 1hr
in
rain 24hr
in
rain mn
in
humidity
%
barometer
mb
20260906053019 60 61 0.0 1.0 0.00 0.00 0.00 87 1011.9
20260906051514 61 67 0.0 1.0 0.00 0.00 0.00 87 1012.1
20260906050027 60 68 0.0 0.0 0.00 0.00 0.00 87 1012.1
20260906044509 61 68 0.0 1.0 0.00 0.00 0.00 86 1012.0
20260906043006 61 66 0.0 1.0 0.00 0.00 0.00 86 1011.9
20260906041505 60 66 0.0 1.0 0.00 0.00 0.00 87 1011.9
20260906040002 60 66 0.0 1.0 0.00 0.00 0.00 88 1011.8
20260906034502 59 65 0.0 0.0 0.00 0.00 0.00 87 1011.8
20260906033100 60 65 0.0 0.0 0.00 0.00 0.00 87 1011.6
20260906031604 60 65 0.0 0.0 0.00 0.00 0.00 86 1011.5
20260906030058 61 65 0.0 0.0 0.00 0.00 0.00 84 1011.5
20260906024558 62 65 0.0 0.0 0.00 0.00 0.00 83 1011.5
20260906023059 62 65 0.0 0.0 0.00 0.00 0.00 83 1011.7
20260906021556 62 65 0.0 2.0 0.00 0.00 0.00 83 1011.7
20260906014555 62 65 0.0 1.0 0.00 0.00 0.00 84 1011.7
20260906013054 62 65 0.0 0.0 0.00 0.00 0.00 83 1011.7
20260906011553 63 65 0.0 1.0 0.00 0.00 0.00 82 1011.5
20260906010052 63 65 0.0 2.0 0.00 0.00 0.00 81 1011.4
20260906004551 63 65 0.0 2.0 0.00 0.00 0.00 81 1011.3
20260906003050 63 65 0.0 0.0 0.00 0.00 0.00 82 1011.2
20260906001548 63 65 0.0 0.0 0.00 0.00 0.00 82 1011.1
20260906000047 63 65 0.0 2.0 0.00 0.00 0.00 81 1010.9
20260905234546 63 65 0.0 3.0 0.00 0.00 0.00 80 1010.8
20260905233048 64 75 0.0 5.0 0.00 0.00 0.00 79 1010.7
20260905231547 64 35 2.0 8.0 0.00 0.00 0.00 78 1010.8
20260905230049 65 75 1.0 6.0 0.00 0.00 0.00 79 1010.6
20260905224559 65 87 2.0 8.0 0.00 0.00 0.00 79 1010.7
20260905223042 66 59 2.0 7.0 0.00 0.00 0.00 78 1010.8
20260905221555 66 55 3.0 8.0 0.00 0.00 0.00 78 1010.7
20260905220041 67 17 1.0 9.0 0.00 0.00 0.00 76 1010.6
20260905214536 68 54 3.0 11.0 0.00 0.00 0.00 75 1010.1
20260905213035 68 15 2.0 8.0 0.00 0.00 0.00 75 1010.0
20260905211633 69 360 2.0 9.0 0.00 0.00 0.00 74 1009.7
20260905210030 69 49 1.0 9.0 0.00 0.00 0.00 75 1009.5
20260905204531 69 94 3.0 11.0 0.00 0.00 0.00 74 1009.4
20260905203033 71 360 3.0 10.0 0.00 0.00 0.00 73 1009.3
20260905201528 70 42 3.0 8.0 0.00 0.00 0.00 74 1009.3
20260905200027 71 54 4.0 13.0 0.00 0.00 0.00 73 1009.0
20260905194526 70 10 4.0 9.0 0.00 0.00 0.00 73 1009.0
20260905193028 71 53 3.0 9.0 0.00 0.00 0.00 72 1008.9
20260905191525 71 40 2.0 6.0 0.00 0.00 0.00 73 1008.9
20260905190025 71 350 3.0 9.0 0.00 0.00 0.00 73 1009.0
20260905184531 70 12 3.0 8.0 0.00 0.00 0.00 73 1009.1
20260905183025 71 12 2.0 7.0 0.00 0.00 0.00 73 1009.1
20260905181523 71 22 2.0 9.0 0.00 0.00 0.00 72 1009.4
20260905180021 72 24 2.0 10.0 0.00 0.00 0.00 72 1009.3
20260905174531 70 355 2.0 12.0 0.00 0.00 0.00 73 1009.1
20260905173026 71 329 4.0 8.0 0.00 0.00 0.00 72 1008.9
20260905171534 71 344 3.0 6.0 0.00 0.00 0.00 73 1008.8
20260905170017 70 39 3.0 9.0 0.00 0.00 0.00 74 1008.8
20260905164515 71 338 4.0 11.0 0.00 0.00 0.00 72 1008.5
20260905163014 74 74 1.0 10.0 0.00 0.00 0.00 69 1008.5
20260905161512 74 40 3.0 10.0 0.00 0.00 0.00 70 1008.4
20260905160013 73 15 2.0 9.0 0.00 0.00 0.00 71 1008.5
20260905154510 74 44 3.0 10.0 0.00 0.00 0.00 70 1008.4
20260905153018 73 23 3.0 9.0 0.00 0.00 0.00 71 1008.4
20260905151509 74 355 3.0 9.0 0.00 0.00 0.00 71 1008.3
20260905150007 73 329 3.0 9.0 0.00 0.00 0.00 71 1008.3
20260905144506 74 345 1.0 6.0 0.00 0.00 0.00 71 1008.3
20260905143006 73 17 2.0 9.0 0.00 0.00 0.00 71 1008.4
20260905141504 72 20 2.0 10.0 0.00 0.00 0.00 73 1008.4
20260905140003 72 11 2.0 8.0 0.00 0.00 0.00 72 1008.4
20260905134501 71 69 3.0 10.0 0.00 0.00 0.00 73 1008.3
20260905133100 71 5 2.0 9.0 0.00 0.00 0.00 75 1008.5
20260905131603 70 306 3.0 10.0 0.00 0.00 0.00 75 1008.5
20260905130054 69 48 3.0 8.0 0.00 0.00 0.00 76 1008.3
20260905124554 68 47 1.0 9.0 0.00 0.00 0.00 77 1008.4
20260905123050 68 360 2.0 5.0 0.00 0.00 0.00 77 1008.2
20260905121548 67 11 2.0 8.0 0.00 0.00 0.00 78 1008.1
20260905120046 67 22 1.0 6.0 0.00 0.00 0.00 78 1008.0
20260905114542 66 360 1.0 6.0 0.00 0.00 0.00 80 1008.0
20260905113039 65 345 1.0 5.0 0.00 0.00 0.00 80 1007.9
20260905111538 64 341 1.0 5.0 0.00 0.00 0.00 81 1007.8
20260905110037 63 339 1.0 5.0 0.00 0.00 0.00 82 1007.7
20260905104537 63 339 0.0 4.0 0.00 0.00 0.00 83 1007.5
20260905103044 62 347 1.0 4.0 0.00 0.00 0.00 84 1007.3
20260905101534 61 326 1.0 4.0 0.00 0.00 0.00 85 1007.4
20260905100033 61 360 0.0 4.0 0.00 0.00 0.00 86 1007.3
20260905094537 60 314 0.0 2.0 0.00 0.00 0.00 87 1007.3
20260905093033 60 322 0.0 2.0 0.00 0.00 0.00 87 1007.2
20260905091603 60 321 0.0 1.0 0.00 0.00 0.00 87 1007.2
20260905090031 60 321 0.0 1.0 0.00 0.00 0.00 87 1007.2
20260905084529 61 321 0.0 1.0 0.00 0.00 0.00 87 1007.3
20260905083028 61 321 0.0 2.0 0.00 0.00 0.00 87 1007.3
20260905081528 61 321 0.0 1.0 0.00 0.00 0.00 88 1007.2
20260905080036 61 321 0.0 1.0 0.00 0.00 0.00 88 1007.2
20260905074526 61 321 0.0 1.0 0.00 0.00 0.00 87 1007.2
20260905073025 61 321 0.0 0.0 0.00 0.00 0.00 87 1007.3
20260905071523 61 321 0.0 1.0 0.00 0.00 0.00 87 1007.3
20260905070025 61 321 0.0 1.0 0.00 0.00 0.00 87 1007.5
20260905064519 61 321 0.0 1.0 0.00 0.00 0.00 87 1007.7
20260905063018 62 321 0.0 0.0 0.00 0.00 0.00 86 1007.9
20260905061516 62 321 0.0 0.0 0.00 0.00 0.00 85 1007.8
20260905060014 62 333 0.0 2.0 0.00 0.00 0.00 86 1007.9
20260905054516 63 333 0.0 0.0 0.00 0.00 0.00 86 1008.0